timestamp,surface_pressure_avg,surface_temp_avg,battery_voltage,lat,long
2018-07-25 00:00:00+00:00,291.8563,15.39,13.05,47.84626,-54.09684
2018-07-25 00:10:00+00:00,285.0814,15.4,12.97,47.84626,-54.09684
2018-07-25 00:20:00+00:00,281.8397,15.2,13.05,47.84626,-54.09684
2018-07-25 00:30:00+00:00,277.1414,15.2,13.05,47.84626,-54.09684
2018-07-25 00:40:00+00:00,268.8531,15.21,13.05,47.84626,-54.09684
2018-07-25 00:50:00+00:00,262.9431,15.1,13.13,47.84626,-54.09684
2018-07-25 01:00:00+00:00,256.1598,15.09,13.05,47.84626,-54.09684
2018-07-25 01:10:00+00:00,248.1731,15.1,12.97,47.84626,-54.09684
2018-07-25 01:20:00+00:00,241.2748,15.1,13.05,47.84626,-54.09684
2018-07-25 01:30:00+00:00,237.7481,15.06,13.05,47.84626,-54.09684
2018-07-25 01:40:00+00:00,234.7148,15.07,13.05,47.84626,-54.09684
2018-07-25 01:50:00+00:00,229.1431,15.09,13.05,47.84626,-54.09684
2018-07-25 02:00:00+00:00,225.0497,15.1,13.05,47.84626,-54.09684
2018-07-25 02:10:00+00:00,223.9764,15.2,12.97,47.84626,-54.09684
2018-07-25 02:20:00+00:00,219.9547,15.2,13.05,47.84626,-54.09684
2018-07-25 02:30:00+00:00,212.0931,15.22,13.05,47.84626,-54.09684
2018-07-25 02:40:00+00:00,208.6831,15.2,13.05,47.84626,-54.09684
2018-07-25 02:50:00+00:00,210.1048,15.2,13.05,47.84626,-54.09684
2018-07-25 03:00:00+00:00,208.6431,15.2,12.97,47.84626,-54.09684
2018-07-25 03:10:00+00:00,204.4648,15.2,12.97,47.84626,-54.09684
2018-07-25 03:20:00+00:00,203.8264,15.2,12.97,47.84626,-54.09684
2018-07-25 03:30:00+00:00,202.9131,15.2,12.97,47.84626,-54.09684
2018-07-25 03:40:00+00:00,199.4864,15.2,13.05,47.84626,-54.09684
2018-07-25 03:50:00+00:00,200.5047,15.2,13.05,47.84626,-54.09684
2018-07-25 04:00:00+00:00,203.1881,15.2,12.97,47.84626,-54.09684
2018-07-25 04:10:00+00:00,198.8931,15.18,12.89,47.84626,-54.09684
2018-07-25 04:20:00+00:00,198.2581,15.1,12.97,47.84626,-54.09684
2018-07-25 04:30:00+00:00,204.8414,15.1,12.97,47.84626,-54.09684
2018-07-25 04:40:00+00:00,205.4315,15.1,12.97,47.84626,-54.09684
2018-07-25 04:50:00+00:00,203.5431,15.17,12.97,47.84626,-54.09684
2018-07-25 05:00:00+00:00,208.1631,15.19,12.97,47.84626,-54.09684
2018-07-25 05:10:00+00:00,213.9648,15.16,12.89,47.84626,-54.09684
2018-07-25 05:20:00+00:00,213.8748,15.1,12.97,47.84626,-54.09684
2018-07-25 05:30:00+00:00,214.6064,15.1,12.97,47.84626,-54.09684
2018-07-25 05:40:00+00:00,217.5781,15.1,12.97,47.84626,-54.09684
2018-07-25 05:50:00+00:00,221.0414,15.1,12.97,47.84626,-54.09684
2018-07-25 06:00:00+00:00,221.5264,15.14,12.97,47.84626,-54.09684
2018-07-25 06:10:00+00:00,223.5048,15.19,12.89,47.84626,-54.09684
2018-07-25 06:20:00+00:00,229.6214,15.2,12.89,47.84626,-54.09684
2018-07-25 06:30:00+00:00,233.1814,15.2,12.97,47.84626,-54.09684
2018-07-25 06:40:00+00:00,235.8564,15.2,12.97,47.84626,-54.09684
2018-07-25 06:50:00+00:00,241.3648,15.2,12.97,47.84626,-54.09684
2018-07-25 07:00:00+00:00,248.0331,15.2,12.89,47.84626,-54.09684
2018-07-25 07:10:00+00:00,251.2747,15.2,12.81,47.84626,-54.09684
2018-07-25 07:20:00+00:00,255.2381,15.2,12.89,47.84626,-54.09684
2018-07-25 07:30:00+00:00,258.713,15.19,12.89,47.84626,-54.09684
2018-07-25 07:40:00+00:00,263.9797,15.1,12.97,47.84626,-54.09684
2018-07-25 07:50:00+00:00,268.5964,15.09,12.97,47.84626,-54.09684
2018-07-25 08:00:00+00:00,274.1481,15.08,12.89,47.84626,-54.09684
2018-07-25 08:10:00+00:00,277.2931,15.1,12.81,47.84626,-54.09684
2018-07-25 08:20:00+00:00,283.4314,15.1,12.89,47.84626,-54.09684
2018-07-25 08:30:00+00:00,289.0047,15.13,12.89,47.84626,-54.09684
2018-07-25 08:40:00+00:00,292.763,15.15,12.97,47.84626,-54.09684
2018-07-25 08:50:00+00:00,296.8297,15.1,12.97,47.84626,-54.09684
2018-07-25 09:00:00+00:00,302.8446,15.1,12.89,47.84626,-54.09684
2018-07-25 09:10:00+00:00,306.2246,15.1,12.81,47.84626,-54.09684
2018-07-25 09:20:00+00:00,308.0647,15.0,12.89,47.84626,-54.09684
2018-07-25 09:30:00+00:00,310.503,15.0,12.97,47.84626,-54.09684
2018-07-25 09:40:00+00:00,312.5696,15.0,12.97,47.84626,-54.09684
2018-07-25 09:50:00+00:00,315.5164,15.0,13.05,47.84626,-54.09684
2018-07-25 10:00:00+00:00,316.0763,15.0,12.97,47.84626,-54.09684
2018-07-25 10:10:00+00:00,315.5046,15.0,12.97,47.84626,-54.09684
2018-07-25 10:20:00+00:00,315.7147,15.0,13.29,47.84626,-54.09684
2018-07-25 10:30:00+00:00,318.5364,15.0,13.53,47.84626,-54.09684
2018-07-25 10:40:00+00:00,319.7713,15.0,13.92,47.84626,-54.09684
2018-07-25 10:50:00+00:00,316.8246,15.08,14.24,47.84626,-54.09684
2018-07-25 11:00:00+00:00,315.588,15.1,14.24,47.84626,-54.09684
2018-07-25 11:10:00+00:00,316.7764,15.1,14.24,47.84626,-54.09684
2018-07-25 11:20:00+00:00,316.168,15.12,15.11,47.84626,-54.09684
2018-07-25 11:30:00+00:00,310.0464,15.19,14.8,47.84626,-54.09684
2018-07-25 11:40:00+00:00,307.408,15.2,14.64,47.84626,-54.09684
2018-07-25 11:50:00+00:00,305.6847,15.25,14.72,47.84626,-54.09684
2018-07-25 12:00:00+00:00,299.4813,15.3,14.56,47.84626,-54.09684
2018-07-25 12:10:00+00:00,290.5764,15.39,14.48,47.84626,-54.09684
2018-07-25 12:20:00+00:00,288.2531,15.4,14.88,47.84626,-54.09684
2018-07-25 12:30:00+00:00,284.8281,15.45,14.72,47.84626,-54.09684
2018-07-25 12:40:00+00:00,275.2231,15.5,14.64,47.84626,-54.09684
2018-07-25 12:50:00+00:00,267.9114,15.58,14.8,47.84626,-54.09684
2018-07-25 13:00:00+00:00,267.4747,15.58,14.64,47.84626,-54.09684
2018-07-25 13:10:00+00:00,261.7298,15.57,14.56,47.84626,-54.09684
2018-07-25 13:20:00+00:00,252.3564,15.59,14.64,47.84626,-54.09684
2018-07-25 13:30:00+00:00,246.6064,15.57,14.64,47.84626,-54.09684
2018-07-25 13:40:00+00:00,242.2531,15.5,14.48,47.84626,-54.09684
2018-07-25 13:50:00+00:00,234.7997,15.51,14.48,47.84626,-54.09684
2018-07-25 14:00:00+00:00,228.5415,15.52,14.56,47.84626,-54.09684
2018-07-25 14:10:00+00:00,225.9664,15.5,14.48,47.84626,-54.09684
2018-07-25 14:20:00+00:00,224.3997,15.5,14.56,47.84626,-54.09684
2018-07-25 14:30:00+00:00,219.7214,15.48,14.56,47.84626,-54.09684
2018-07-25 14:40:00+00:00,214.6314,15.46,14.56,47.84626,-54.09684
2018-07-25 14:50:00+00:00,212.2447,15.4,14.56,47.84626,-54.09684
2018-07-25 15:00:00+00:00,209.0164,15.4,14.48,47.84626,-54.09684
2018-07-25 15:10:00+00:00,205.6765,15.39,14.4,47.84626,-54.09684
2018-07-25 15:20:00+00:00,204.4098,15.39,14.48,47.84626,-54.09684
2018-07-25 15:30:00+00:00,203.4964,15.39,14.48,47.84626,-54.09684
2018-07-25 15:40:00+00:00,201.3415,15.4,14.4,47.84626,-54.09684
2018-07-25 15:50:00+00:00,200.4598,15.4,14.4,47.84626,-54.09684
2018-07-25 16:00:00+00:00,200.7831,15.4,14.32,47.84626,-54.09684
2018-07-25 16:10:00+00:00,200.1648,15.39,14.24,47.84626,-54.09684
2018-07-25 16:20:00+00:00,201.0564,15.4,14.32,47.84626,-54.09684
2018-07-25 16:30:00+00:00,203.9431,15.4,14.32,47.84626,-54.09684
2018-07-25 16:40:00+00:00,203.1281,15.4,14.32,47.84626,-54.09684
2018-07-25 16:50:00+00:00,203.6165,15.43,14.24,47.84626,-54.09684
2018-07-25 17:00:00+00:00,207.2498,15.46,14.24,47.84626,-54.09684
2018-07-25 17:10:00+00:00,209.6281,15.49,14.08,47.84626,-54.09684
2018-07-25 17:20:00+00:00,211.9914,15.49,14.16,47.84626,-54.09684
2018-07-25 17:30:00+00:00,218.7448,15.49,14.16,47.84626,-54.09684
2018-07-25 17:40:00+00:00,225.7281,15.48,14.16,47.84626,-54.09684
2018-07-25 17:50:00+00:00,229.1647,15.39,14.08,47.84626,-54.09684
2018-07-25 18:00:00+00:00,232.1964,15.28,14.0,47.84626,-54.09684
2018-07-25 18:10:00+00:00,237.2497,15.2,13.92,47.84626,-54.09684
2018-07-25 18:20:00+00:00,242.8065,15.16,13.92,47.84626,-54.09684
2018-07-25 18:30:00+00:00,246.8914,15.19,13.92,47.84626,-54.09684
2018-07-25 18:40:00+00:00,250.6481,15.23,13.92,47.84626,-54.09684
2018-07-25 18:50:00+00:00,254.1847,15.3,13.92,47.84626,-54.09684
2018-07-25 19:00:00+00:00,258.3164,15.3,13.84,47.84626,-54.09684
2018-07-25 19:10:00+00:00,263.3981,15.3,13.76,47.84626,-54.09684
2018-07-25 19:20:00+00:00,269.2531,15.35,13.76,47.84626,-54.09684
2018-07-25 19:30:00+00:00,276.1947,15.39,13.76,47.84626,-54.09684
2018-07-25 19:40:00+00:00,282.3014,15.39,13.84,47.84626,-54.09684
2018-07-25 19:50:00+00:00,287.4581,15.2,13.84,47.84626,-54.09684
2018-07-25 20:00:00+00:00,294.3664,14.9,13.76,47.84626,-54.09684
2018-07-25 20:10:00+00:00,300.1313,15.04,13.68,47.84626,-54.09684
2018-07-25 20:20:00+00:00,305.4447,15.13,13.68,47.84626,-54.09684
2018-07-25 20:30:00+00:00,312.2581,14.7,13.68,47.84626,-54.09684
2018-07-25 20:40:00+00:00,319.7813,14.86,13.68,47.84626,-54.09684
2018-07-25 20:50:00+00:00,322.398,15.0,13.68,47.84626,-54.09684
2018-07-25 21:00:00+00:00,328.4514,14.7,13.68,47.84626,-54.09684
2018-07-25 21:10:00+00:00,336.9314,14.71,13.6,47.84626,-54.09684
2018-07-25 21:20:00+00:00,339.7513,14.91,13.6,47.84626,-54.09684
2018-07-25 21:30:00+00:00,340.4263,14.9,13.6,47.84626,-54.09684
2018-07-25 21:40:00+00:00,344.0213,14.9,13.6,47.84626,-54.09684
2018-07-25 21:50:00+00:00,347.6896,15.0,13.6,47.84626,-54.09684
2018-07-25 22:00:00+00:00,348.7763,15.1,13.53,47.84626,-54.09684
2018-07-25 22:10:00+00:00,348.1495,15.1,13.44,47.84626,-54.09684
2018-07-25 22:20:00+00:00,350.3763,15.1,13.44,47.84626,-54.09684
2018-07-25 22:30:00+00:00,351.9513,15.1,13.44,47.84626,-54.09684
2018-07-25 22:40:00+00:00,352.4663,15.1,13.37,47.84626,-54.09684
2018-07-25 22:50:00+00:00,351.1063,15.07,13.37,47.84626,-54.09684
2018-07-25 23:00:00+00:00,351.8946,15.1,13.29,47.84626,-54.09684
2018-07-25 23:10:00+00:00,352.0646,15.1,13.21,47.84626,-54.09684
2018-07-25 23:20:00+00:00,348.8229,15.1,13.21,47.84626,-54.09684
2018-07-25 23:30:00+00:00,345.7313,15.12,13.21,47.84626,-54.09684
2018-07-25 23:40:00+00:00,344.4396,15.2,13.21,47.84626,-54.09684
2018-07-25 23:50:00+00:00,341.918,15.72,13.21,47.84626,-54.09684
